Tracking 18851 objects as of 25-Nov-2017
HD Live streaming from Space Station
objects crossing your sky now

FENGYUN 1C DEB

Track FENGYUN 1C DEB now!
10-day predictions


NORAD ID: 31473
Int'l Code: 1999-025BVM
Perigee: 788.3 km
Apogee: 902.2 km
Inclination: 98.8 °
Period: 101.7 minutes
Semi major axis: 7216 km
RCS: 0.0215 m2 (small)
Launch date: May 10, 1999
Source: People's Republic of China (PRC)
Launch site: Taiyaun Space Center, China (TSC)

Note: This is SATELLITE DEBRIS
aabbcc
Your satellite tracking list
Your tracking list is empty




NASA's NSSDC Master Catalog

Two Line Element Set (TLE):
1 31473U 99025BVM 17328.40310455 +.00000689 +00000-0 +35939-3 0  9991
2 31473 098.8430 013.8992 0078941 209.0691 218.8870 14.16229838277958
Source of the keplerian elements: AFSPC